Woody Richerson — WDF9621 — position and weather

sailwx.info

Track history (hours):
 
Tides and Currents Weather Stations Pressure Air Temp Water Temp Dewpoint Dewpoint Depression Visibility Wind Speed Wind Dir Waves Ship Positions

Woody Richerson

Owner: Florida Marine, LLC, Mandeville, LA. More information available from US FCC via Universal Licensing System and Coast Guard Vessel Documentation Center.

Last reported at 2014-Oct-22 09:09 UTC. Time now 2014-Oct-23 07:57 UTC.
Position N 29°27' W 094°41'.

Length 27 m.

Type: Other ship. MMSI: 367507070.

Date/timePositionNaut miles runAvg speedWind from/ knotsBaromVisibWave heightAir tempDewpointWater temp
2014-Oct-22 09:09N 29°27' W 094°41'0 0.0
2014-Oct-22 05:28N 29°27' W 094°41'9 0.5
2014-Oct-21 12:33N 29°29' W 094°52'5 5.5
2014-Oct-21 11:33N 29°33' W 094°55'5 5.4
2014-Oct-21 10:33N 29°38' W 094°58'5 5.1
2014-Oct-21 09:33N 29°42' W 095°01'5 4.8
2014-Oct-21 08:33N 29°46' W 095°05'6 4.9
2014-Oct-21 07:26N 29°45' W 095°11'3 3.1
2014-Oct-21 06:27N 29°43' W 095°14'0 0.0
2014-Oct-20 08:05N 29°43' W 095°14'1 1.1
2014-Oct-20 07:32N 29°44' W 095°14'5 4.7
2014-Oct-20 06:30N 29°44' W 095°08'4 4.1
2014-Oct-20 05:33N 29°45' W 095°04'5 4.7
2014-Oct-20 04:33N 29°42' W 094°60'5 5.3
2014-Oct-20 03:33N 29°37' W 094°57'6 5.8
2014-Oct-20 02:33N 29°32' W 094°54'  
2014-Oct-15 15:17N 29°43' W 094°07'3 4.6
2014-Oct-15 14:33N 29°41' W 094°10'9 4.4
2014-Oct-15 12:30N 29°38' W 094°19'4 4.2
2014-Oct-15 11:31N 29°36' W 094°24'4 3.8
2014-Oct-15 10:32N 29°34' W 094°27'4 4.2
2014-Oct-15 09:33N 29°31' W 094°31'6 4.1
2014-Oct-15 08:09N 29°29' W 094°37'4 3.9
2014-Oct-15 07:15N 29°27' W 094°41'8 4.8
2014-Oct-15 05:31N 29°22' W 094°48'4 3.7
2014-Oct-15 04:33N 29°25' W 094°50'4 4.3
2014-Oct-15 03:33N 29°29' W 094°52'4 4.5
2014-Oct-15 02:33N 29°33' W 094°54'5 4.9
2014-Oct-15 01:33N 29°37' W 094°57'6 5.6
2014-Oct-15 00:33N 29°42' W 095°00'5 5.3
2014-Oct-14 23:33N 29°46' W 095°05'5 4.8
2014-Oct-14 22:33N 29°45' W 095°10'4 0.4
2014-Oct-14 11:24N 29°43' W 095°14'0 0.0
2014-Oct-14 10:33N 29°43' W 095°14'0 0.0
2014-Oct-14 09:27N 29°43' W 095°14'0 0.0
2014-Oct-14 07:32N 29°43' W 095°14'1 0.1
2014-Oct-14 02:08N 29°43' W 095°14'3 2.9
2014-Oct-14 01:15N 29°45' W 095°11'4 4.5
2014-Oct-14 00:25N 29°44' W 095°07'4 3.3
2014-Oct-13 23:10N 29°47' W 095°04'0 0.0
2014-Oct-13 22:33N 29°47' W 095°04'2 2.2
2014-Oct-13 21:33N 29°46' W 095°06'1 0.0
2014-Oct-13 07:31N 29°46' W 095°06'0 0.0
2014-Oct-13 06:26N 29°46' W 095°06'0 0.0
2014-Oct-13 05:28N 29°46' W 095°06'0 0.0
2014-Oct-13 04:27N 29°46' W 095°06'0 0.0
2014-Oct-13 03:25N 29°46' W 095°06'0 0.0
2014-Oct-13 02:33N 29°46' W 095°06'0 0.0
2014-Oct-13 01:07N 29°46' W 095°06'0 0.0
2014-Oct-13 00:19N 29°46' W 095°06'0 0.0
2014-Oct-12 23:33N 29°46' W 095°06'0 0.0
2014-Oct-12 22:31N 29°46' W 095°06'0 0.0
2014-Oct-12 21:33N 29°46' W 095°06'0 0.0
2014-Oct-12 20:07N 29°46' W 095°06'0 0.0
2014-Oct-12 19:33N 29°46' W 095°06'0 0.0
2014-Oct-12 18:15N 29°46' W 095°06'0 0.0
2014-Oct-12 17:24N 29°46' W 095°06'0 0.0
2014-Oct-12 16:27N 29°46' W 095°06'0 0.0
2014-Oct-12 15:33N 29°46' W 095°06'0 0.0
2014-Oct-12 14:23N 29°46' W 095°06'  
Track history (hours):
 
Tides and Currents Weather Stations Pressure Air Temp Water Temp Dewpoint Dewpoint Depression Visibility Wind Speed Wind Dir Waves Ship Positions

Woody Richerson

Owner: Florida Marine, LLC, Mandeville, LA. More information available from US FCC via Universal Licensing System and Coast Guard Vessel Documentation Center.

Last reported at 2014-Oct-22 09:09 UTC. Time now 2014-Oct-23 07:57 UTC.
Position N 29°27' W 094°41'.

Length 27 m.

Type: Other ship. MMSI: 367507070.

Date/timePositionNaut miles runAvg speedWind from/ knotsBaromVisibWave heightAir tempDewpointWater temp
2014-Oct-22 09:09N 29°27' W 094°41'0 0.0
2014-Oct-22 05:28N 29°27' W 094°41'9 0.5
2014-Oct-21 12:33N 29°29' W 094°52'5 5.5
2014-Oct-21 11:33N 29°33' W 094°55'5 5.4
2014-Oct-21 10:33N 29°38' W 094°58'5 5.1
2014-Oct-21 09:33N 29°42' W 095°01'5 4.8
2014-Oct-21 08:33N 29°46' W 095°05'6 4.9
2014-Oct-21 07:26N 29°45' W 095°11'3 3.1
2014-Oct-21 06:27N 29°43' W 095°14'0 0.0
2014-Oct-20 08:05N 29°43' W 095°14'1 1.1
2014-Oct-20 07:32N 29°44' W 095°14'5 4.7
2014-Oct-20 06:30N 29°44' W 095°08'4 4.1
2014-Oct-20 05:33N 29°45' W 095°04'5 4.7
2014-Oct-20 04:33N 29°42' W 094°60'5 5.3
2014-Oct-20 03:33N 29°37' W 094°57'6 5.8
2014-Oct-20 02:33N 29°32' W 094°54'  
2014-Oct-15 15:17N 29°43' W 094°07'3 4.6
2014-Oct-15 14:33N 29°41' W 094°10'9 4.4
2014-Oct-15 12:30N 29°38' W 094°19'4 4.2
2014-Oct-15 11:31N 29°36' W 094°24'4 3.8
2014-Oct-15 10:32N 29°34' W 094°27'4 4.2
2014-Oct-15 09:33N 29°31' W 094°31'6 4.1
2014-Oct-15 08:09N 29°29' W 094°37'4 3.9
2014-Oct-15 07:15N 29°27' W 094°41'8 4.8
2014-Oct-15 05:31N 29°22' W 094°48'4 3.7
2014-Oct-15 04:33N 29°25' W 094°50'4 4.3
2014-Oct-15 03:33N 29°29' W 094°52'4 4.5
2014-Oct-15 02:33N 29°33' W 094°54'5 4.9
2014-Oct-15 01:33N 29°37' W 094°57'6 5.6
2014-Oct-15 00:33N 29°42' W 095°00'5 5.3
2014-Oct-14 23:33N 29°46' W 095°05'5 4.8
2014-Oct-14 22:33N 29°45' W 095°10'4 0.4
2014-Oct-14 11:24N 29°43' W 095°14'0 0.0
2014-Oct-14 10:33N 29°43' W 095°14'0 0.0
2014-Oct-14 09:27N 29°43' W 095°14'0 0.0
2014-Oct-14 07:32N 29°43' W 095°14'1 0.1
2014-Oct-14 02:08N 29°43' W 095°14'3 2.9
2014-Oct-14 01:15N 29°45' W 095°11'4 4.5
2014-Oct-14 00:25N 29°44' W 095°07'4 3.3
2014-Oct-13 23:10N 29°47' W 095°04'0 0.0
2014-Oct-13 22:33N 29°47' W 095°04'2 2.2
2014-Oct-13 21:33N 29°46' W 095°06'1 0.0
2014-Oct-13 07:31N 29°46' W 095°06'0 0.0
2014-Oct-13 06:26N 29°46' W 095°06'0 0.0
2014-Oct-13 05:28N 29°46' W 095°06'0 0.0
2014-Oct-13 04:27N 29°46' W 095°06'0 0.0
2014-Oct-13 03:25N 29°46' W 095°06'0 0.0
2014-Oct-13 02:33N 29°46' W 095°06'0 0.0
2014-Oct-13 01:07N 29°46' W 095°06'0 0.0
2014-Oct-13 00:19N 29°46' W 095°06'0 0.0
2014-Oct-12 23:33N 29°46' W 095°06'0 0.0
2014-Oct-12 22:31N 29°46' W 095°06'0 0.0
2014-Oct-12 21:33N 29°46' W 095°06'0 0.0
2014-Oct-12 20:07N 29°46' W 095°06'0 0.0
2014-Oct-12 19:33N 29°46' W 095°06'0 0.0
2014-Oct-12 18:15N 29°46' W 095°06'0 0.0
2014-Oct-12 17:24N 29°46' W 095°06'0 0.0
2014-Oct-12 16:27N 29°46' W 095°06'0 0.0
2014-Oct-12 15:33N 29°46' W 095°06'0 0.0
2014-Oct-12 14:23N 29°46' W 095°06'  

Dump ship's entire track history